Regional Weather Roundup
Issued by NWS Jackson, KY

Home | Current Version | Previous Version | Graphics & Text | Print | Product List | Glossary On
Versions: 1 2 3 4 5 6 7 8 9 10 11 12 13 14 15 16 17 18 19 20 21 22 23 24 25 26 27 28 29 30 31 32 33 34 35 36 37 38 39 40 41 42 43 44 45 46 47 48 49 50
000
ASUS43 KJKL 260210
RWRJKL

EAST KENTUCKY HOURLY WEATHER ROUNDUP
NATIONAL WEATHER SERVICE JACKSON KY
1000 PM EDT MON MAY 25 2015

NOTE: "FAIR" INDICATES FEW OR NO CLOUDS BELOW 12,000 FEET WITH
NO SIGNIFICANT WEATHER AND/OR OBSTRUCTIONS TO VISIBILITY.

* THESE REPORTS ARE NOT UNDER NWS QUALITY CONTROL AND MAY NOT
  REPORT WEATHER SUCH AS PRECIPITATION AND FOG.

KYZ079-080-083-085-087-088-110-112-115-119-120-260300
...EASTERN KENTUCKY...

CITY           SKY/WX    TMP DP  RH WIND       PRES   REMARKS
JACKSON        PTCLDY    74  60  61 CALM      30.15S
LONDON         MOCLDY    75  60  59 S5        30.14S
SOMERSET*      CLOUDY    68  63  83 S3        30.15R
MONTICELLO*    CLOUDY    69  67  93 S5        30.17R
MIDDLESBORO*   CLOUDY    76  63  63 S8        30.16F
HARLAN APT*    PTCLDY    72  59  64 MISG      30.17S
HAZARD APT*    CLEAR     75  59  57 CALM      30.15S
BLACK MTN*       N/A     64  57  77 S2          N/A
PIKEVILLE APT* CLEAR     75  61  60 SE3       30.15F
BIG SANDY*     PTCLDY    74  65  74 CALM      30.14F
MOREHEAD APT*  MOCLDY    68  66  94 CALM      30.15S
$$

KYZ035-036-041-042-044-050-067-078-099-260300
...CENTRAL KENTUCKY...

CITY           SKY/WX    TMP DP  RH WIND       PRES   REMARKS
MT STERLING*   CLOUDY    68  68 100 CALM      30.15R
FLEMING/MASON* LGT RAIN  66  64  94 CALM      30.14R
DANVILLE*      CLOUDY    70  63  78 S7        30.12S
RICHMOND*      CLOUDY    70  63  78 S5        30.12S
LEXINGTON      CLOUDY    69  66  90 SW3       30.13R
FRANKFORT      MOCLDY    70  63  78 S3        30.10R
$$

KYZ091>093-OHZ055-061-077-WVZ005-015-034-035-042-260300
...SOUTHERN OHIO/WEST VIRGINIA...

CITY           SKY/WX    TMP DP  RH WIND       PRES   REMARKS
COVINGTON      CLOUDY    70  64  81 CALM      30.10S
COLUMBUS       PTCLDY    75  60  59 SW9G17    30.09F
DAYTON         MOCLDY    71  64  78 S8        30.10R
WILMINGTON     MOCLDY    69  60  73 S5        30.10S
HUNTINGTON     MOCLDY    72  65  78 E3        30.11F
CHARLESTON     MOCLDY    73  64  73 CALM      30.14R
PINEVILLE*     CLOUDY    68  63  84 MISG      30.25S
BECKLEY        MOCLDY    70  56  61 SE8       30.25R
BLUEFIELD      MOCLDY    71  54  54 SE8       30.29R
$$

VAZ002-007-008-TNZ017-027-036-066-071-260300
...SOUTHWEST VIRGINIA/EAST TENNESSEE...

CITY           SKY/WX    TMP DP  RH WIND       PRES   REMARKS
WISE*          PTCLDY    70  54  56 S6        30.25F
JONESVILLE*    PTCLDY    68  64  88 CALM      30.20S
ABINGDON*      MOCLDY    75  57  54 CALM      30.24S
BRISTOL        MOCLDY    76  58  53 S7        30.20S
KNOXVILLE      LGT RAIN  71  65  81 S15G25    30.20R
OAK RIDGE      LGT RAIN  70  67  90 CALM      30.19F
CROSSVILLE     CLOUDY    67  63  87 S3        30.20R
NASHVILLE      CLOUDY    68  66  93 SE6       30.12R
$$

...KEY TO REMARKS...
VSB - VISIBILITY IN MILES
WCI - WIND CHILL INDEX
HX  - HEAT INDEX

$$



USA.gov is the U.S. government's official web portal to all federal, state and local government web resources and services.